GFSNE_925_temp_363.txt.gz
Temp
-4 -5 -6 -5 -5 -5 -5 -4 -3 -3 -3 -2 -2 -2 -2 -2 -2 -1 -1 -0 -0 -0 -0 -0 0 1 1 1 1 2 2 2 2 3 3 4 5 6
-6 -6 -6 -5 -5 -5 -5 -5 -4 -3 -4 -2 -2 -2 -2 -2 -2 -2 -2 -1 -1 -1 -1 -1 -1 -0 0 0 1 1 2 2 2 2 2 3 4 8
-6 -6 -6 -6 -5 -5 -5 -4 -4 -4 -4 -3 -3 -3 -3 -3 -2 -2 -2 -2 -1 -1 -1 -1 -1 -1 -0 -1 -0 0 1 1 1 1 1 2 5 8
-7 -7 -6 -6 -5 -5 -4 -4 -4 -4 -4 -4 -4 -4 -4 -3 -3 -3 -2 -2 -2 -1 -1 -2 -2 -1 -1 -1 -1 0 1 1 1 2 2 3 5 8
-7 -7 -6 -6 -5 -5 -5 -4 -4 -4 -4 -4 -4 -4 -5 -5 -4 -3 -3 -2 -2 -2 -2 -2 -1 -1 -2 -1 -1 -0 1 1 2 2 2 3 6 7
-6 -6 -6 -6 -5 -4 -4 -4 -4 -4 -5 -5 -5 -5 -4 -5 -5 -4 -4 -2 -2 -2 -2 -1 -1 -1 -2 -1 -1 -0 1 1 2 2 2 4 5 6
-6 -6 -6 -6 -5 -4 -4 -4 -4 -5 -5 -5 -5 -5 -4 -5 -6 -5 -4 -4 -2 -2 -2 -1 -2 -2 -2 -1 -1 -0 0 2 2 2 2 3 4 7
-6 -6 -6 -5 -5 -5 -4 -4 -4 -4 -5 -5 -5 -5 -5 -5 -5 -5 -5 -4 -3 -2 -2 -2 -2 -1 -1 -1 -0 -0 1 2 2 2 2 3 4 7
-6 -6 -6 -5 -5 -5 -4 -4 -3 -3 -4 -4 -5 -5 -5 -5 -5 -5 -5 -4 -4 -3 -2 -3 -3 -2 -1 -1 -0 -0 1 2 1 2 2 3 5 7
-6 -6 -6 -5 -5 -4 -4 -3 -3 -3 -3 -3 -4 -4 -5 -5 -5 -5 -4 -4 -4 -3 -3 -3 -3 -2 -0 -0 -0 1 1 2 1 1 2 3 5 8
-6 -6 -6 -6 -5 -5 -4 -4 -3 -3 -2 -3 -4 -4 -5 -5 -4 -4 -4 -4 -3 -4 -3 -4 -2 -2 -1 -1 -1 -1 2 2 2 2 2 3 6 7
-7 -7 -6 -6 -6 -5 -5 -4 -4 -3 -2 -3 -3 -3 -4 -3 -3 -3 -4 -4 -4 -4 -2 -3 -1 -2 -1 -1 0 -1 2 2 2 2 3 4 6 8
-7 -7 -7 -7 -6 -6 -5 -5 -4 -3 -2 -3 -3 -3 -3 -3 -3 -3 -3 -3 -3 -4 -3 -2 -2 -2 -2 -1 1 1 0 1 2 3 3 4 6 9
-8 -8 -7 -7 -7 -7 -6 -5 -5 -4 -4 -3 -3 -3 -3 -3 -3 -3 -3 -3 -3 -3 -2 -2 -2 -2 -1 -0 1 2 0 1 1 3 5 6 6 8
-8 -8 -8 -8 -8 -7 -7 -6 -6 -5 -5 -4 -3 -2 -3 -3 -3 -3 -3 -2 -3 -3 -3 -3 -3 -3 -2 -2 -0 2 2 1 3 3 6 7 8 9
-9 -8 -9 -9 -8 -8 -7 -7 -6 -6 -5 -5 -4 -3 -2 -2 -2 -3 -3 -3 -3 -3 -3 -2 -2 -2 -2 -2 -1 -1 3 3 4 4 7 8 8 10
-9 -9 -9 -9 -9 -8 -8 -8 -7 -6 -5 -5 -4 -3 -3 -2 -2 -2 -2 -2 -2 -2 -2 -2 -2 -2 -2 -2 -1 -0 3 5 5 6 7 7 8 10
-9 -10 -10 -10 -9 -9 -9 -8 -7 -7 -6 -5 -4 -3 -3 -2 -2 -2 -2 -2 -2 -2 -1 -1 -2 -2 -2 -1 -1 2 4 6 7 7 8 10 10 10
-10 -10 -10 -10 -10 -10 -9 -8 -8 -7 -6 -5 -4 -3 -3 -3 -2 -2 -2 -2 -2 -2 -1 -1 -2 -0 1 3 1 4 7 7 8 9 10 10 10 10
-10 -10 -11 -11 -10 -10 -9 -9 -8 -7 -6 -5 -4 -4 -3 -3 -2 -2 -2 -2 -2 -2 -2 -1 -0 0 3 4 1 4 8 8 9 9 9 9 9 10
-10 -11 -11 -11 -11 -11 -10 -9 -8 -7 -6 -5 -4 -4 -3 -3 -2 -2 -2 -2 -2 -2 -1 -1 1 2 5 5 4 2 6 9 10 8 7 9 9 9
-10 -11 -11 -11 -11 -11 -11 -10 -9 -8 -7 -6 -5 -4 -4 -3 -3 -2 -2 -2 -1 -1 -1 -0 1 2 3 3 1 1 2 6 9 9 9 10 10 8
-10 -11 -11 -11 -11 -11 -11 -11 -10 -9 -8 -7 -6 -5 -4 -3 -3 -2 -2 -2 -1 -1 -1 -1 -0 1 1 1 2 1 3 4 6 8 8 10 12 13

GFSNE_925_temp_369.txt.gz
Temp
-4 -5 -5 -6 -6 -6 -5 -5 -4 -2 -0 -0 -0 -0 -1 -1 -1 -1 -1 -0 -1 -0 0 0 1 1 1 2 2 2 2 2 3 3 3 3 4 4
-5 -5 -5 -6 -6 -5 -5 -5 -4 -4 -2 -1 -1 -1 -1 -1 -1 -2 -1 -2 -1 -1 -1 -0 -0 0 1 1 1 1 1 1 2 3 3 2 3 3
-5 -5 -5 -5 -5 -5 -5 -4 -4 -4 -2 -1 -1 -1 -1 -1 -1 -2 -2 -1 -1 -1 -1 -1 -1 -1 -0 -0 -0 -0 -0 0 1 2 2 2 2 2
-5 -5 -5 -5 -5 -5 -5 -4 -4 -3 -3 -2 -2 -2 -2 -2 -2 -2 -2 -2 -1 -1 -1 -1 -1 -1 -1 -1 -1 -1 0 0 1 1 1 1 2 3
-4 -5 -5 -5 -5 -5 -5 -4 -4 -4 -3 -3 -2 -2 -2 -2 -3 -3 -3 -2 -2 -2 -2 -1 -2 -1 -1 -1 -1 -1 -0 0 1 1 1 1 2 3
-6 -6 -5 -5 -5 -5 -4 -4 -3 -3 -3 -4 -4 -3 -4 -4 -4 -4 -3 -3 -2 -2 -2 -1 -1 -1 -1 -1 -1 -1 -1 -0 0 1 1 1 2 3
-5 -5 -5 -5 -5 -5 -5 -4 -4 -3 -3 -3 -3 -3 -3 -3 -3 -3 -4 -4 -3 -2 -2 -1 -1 -1 -1 -1 -1 -1 -1 -0 0 1 1 1 2 3
-5 -5 -5 -5 -5 -5 -5 -5 -4 -4 -3 -2 -2 -2 -3 -4 -4 -4 -4 -5 -3 -3 -2 -1 -1 -0 -0 -0 -1 -1 -1 -1 -0 0 1 1 2 3
-6 -6 -6 -6 -6 -6 -5 -5 -4 -4 -4 -3 -2 -2 -2 -3 -4 -3 -4 -5 -3 -2 -3 -1 -1 -1 -1 -1 -2 -1 -1 -1 -0 0 1 1 2 3
-6 -6 -6 -6 -6 -6 -5 -4 -4 -3 -3 -3 -3 -2 -2 -2 -3 -3 -4 -5 -4 -3 -3 -2 -1 -1 -0 -1 -2 -1 -1 -0 -0 1 1 2 2 3
-6 -6 -7 -7 -7 -6 -6 -5 -4 -4 -3 -4 -3 -3 -3 -4 -4 -4 -4 -4 -3 -3 -3 -3 -2 -2 -1 0 -0 -0 -0 -0 0 1 1 2 2 3
-6 -6 -7 -7 -7 -7 -6 -6 -5 -4 -5 -4 -3 -3 -3 -3 -4 -4 -3 -3 -2 -2 -3 -3 -2 -1 1 0 1 0 -1 0 0 1 2 2 2 3
-7 -7 -7 -8 -8 -7 -7 -6 -6 -6 -5 -4 -3 -3 -3 -4 -4 -4 -4 -3 -2 -2 -2 -3 -2 -1 0 -0 -1 -0 1 1 -0 0 2 2 2 2
-8 -8 -8 -8 -8 -8 -8 -7 -7 -6 -5 -4 -3 -2 -3 -3 -3 -4 -3 -3 -2 -2 -2 -3 -2 -0 0 -0 1 0 -1 -0 -1 1 2 3 3 3
-9 -9 -8 -8 -8 -8 -8 -8 -7 -6 -6 -4 -3 -3 -3 -2 -2 -3 -3 -3 -3 -3 -2 -2 -3 -2 -1 -1 0 -0 1 -0 -0 0 2 2 3 3
-9 -8 -8 -8 -8 -8 -8 -8 -8 -7 -6 -5 -4 -3 -3 -3 -3 -3 -3 -3 -3 -3 -3 -3 -3 -3 -2 -2 -2 -1 -0 2 1 1 2 3 3 4
-8 -7 -7 -8 -8 -8 -8 -8 -8 -8 -7 -6 -5 -4 -3 -2 -3 -3 -2 -2 -2 -2 -3 -3 -3 -3 -2 -2 -2 -2 -1 1 2 1 1 3 4 5
-7 -7 -7 -8 -8 -8 -9 -9 -8 -8 -8 -7 -6 -4 -3 -2 -2 -3 -3 -2 -2 -2 -2 -3 -3 -3 -3 -3 -2 -2 -1 1 3 3 3 5 5 5
-7 -7 -7 -8 -8 -9 -9 -9 -9 -9 -8 -7 -5 -4 -3 -2 -2 -2 -2 -2 -2 -2 -2 -2 -2 -3 -1 -1 -1 -2 -2 0 3 4 3 5 6 6
-8 -8 -9 -9 -8 -9 -9 -9 -9 -9 -8 -7 -5 -4 -3 -2 -2 -1 -2 -2 -2 -2 -2 -2 -2 -2 -1 0 1 0 -0 0 4 4 4 5 7 7
-9 -9 -10 -10 -10 -9 -9 -9 -10 -9 -9 -8 -6 -5 -3 -2 -1 -1 -1 -1 -2 -2 -2 -2 -2 -1 -0 0 1 1 1 3 3 4 4 5 7 8
-10 -10 -11 -11 -11 -10 -10 -10 -10 -10 -10 -9 -7 -6 -4 -2 -2 -1 -1 -1 -1 -1 -1 -1 -2 -2 -1 -0 2 2 1 2 4 3 6 7 8 8
-11 -11 -11 -11 -12 -11 -11 -11 -11 -10 -10 -10 -8 -7 -5 -3 -2 -1 -2 -1 -1 -1 -1 -1 -2 -1 -1 -0 1 2 3 3 4 4 6 8 9 10

GFSNE_925_temp_375.txt.gz
Temp
-2 -1 -1 -1 -2 -2 -3 -3 -2 -1 0 2 2 1 1 2 2 1 2 2 1 -0 1 1 1 1 2 2 2 3 3 3 3 3 3 4 4 4
-2 -2 -2 -2 -2 -3 -3 -3 -3 -2 -1 1 1 1 1 1 1 1 2 0 -0 0 0 1 0 1 1 1 1 2 2 3 3 2 2 3 3 3
-2 -2 -2 -2 -2 -2 -3 -2 -2 -2 -1 0 1 1 0 1 1 1 2 2 1 1 0 0 0 0 0 0 1 1 1 3 2 1 1 1 2 3
-2 -2 -2 -2 -2 -2 -3 -2 -2 -2 -1 -1 0 1 0 0 1 1 1 2 2 1 1 0 0 0 0 0 0 1 1 2 1 1 1 0 1 1
-2 -3 -3 -3 -3 -3 -3 -3 -2 -2 -1 -1 -1 -0 -0 -0 0 1 1 1 1 2 1 0 -0 -0 0 -0 0 0 0 1 1 1 1 1 1 2
-3 -3 -3 -3 -3 -3 -3 -3 -2 -2 -2 -1 -1 -0 -0 0 -1 -0 -0 -0 1 1 1 1 -0 -0 0 -0 -0 0 -0 1 1 0 1 1 1 2
-2 -3 -3 -4 -4 -4 -4 -4 -4 -3 -2 -1 -1 -0 -1 -0 -0 -0 -1 -1 -0 0 1 1 1 0 0 -0 -0 0 -0 0 1 0 0 1 1 2
-4 -3 -4 -4 -4 -5 -5 -5 -5 -4 -3 -2 -1 -0 0 -1 -0 -1 -1 -1 -1 -1 -0 1 1 2 2 2 1 1 1 1 1 0 0 1 1 2
-4 -4 -4 -5 -5 -5 -6 -6 -5 -5 -5 -4 -3 -1 -0 -0 -1 -0 -1 -1 -1 -1 -0 0 1 1 2 3 3 2 1 1 1 -0 -0 1 1 2
-4 -4 -5 -6 -6 -6 -6 -6 -5 -4 -4 -3 -3 -2 -1 -1 -1 -1 -1 -1 -1 -1 -1 0 1 1 2 2 2 2 1 1 1 0 -0 1 1 2
-4 -5 -5 -6 -6 -6 -7 -6 -5 -4 -4 -3 -3 -3 -3 -2 -2 -1 -1 -2 -1 -1 -1 0 0 1 1 2 2 1 2 1 1 0 0 1 1 2
-5 -5 -5 -6 -6 -7 -7 -7 -5 -5 -5 -4 -3 -3 -3 -3 -2 -1 -0 -1 -1 -1 -2 -1 0 -1 1 1 2 2 1 1 1 0 0 1 1 2
-5 -5 -5 -5 -6 -7 -7 -7 -7 -7 -6 -5 -3 -2 -2 -2 -2 -1 -1 -1 -1 0 -0 -1 -0 0 0 1 2 3 2 3 1 0 1 1 2 2
-6 -6 -6 -6 -6 -6 -7 -7 -6 -6 -5 -4 -2 -1 -2 -2 -2 -1 -1 -1 -1 -0 -1 -1 -0 -0 1 1 2 2 3 5 2 2 1 2 2 3
-6 -5 -6 -7 -7 -6 -6 -6 -6 -6 -5 -4 -2 -1 -1 -1 -1 -2 -2 -2 -2 -1 -1 -1 -1 0 1 2 2 2 3 3 5 5 4 4 2 3
-5 -5 -6 -7 -7 -7 -6 -6 -6 -6 -5 -4 -3 -2 -1 -1 -2 -2 -3 -2 -2 -1 -1 -1 -0 -0 1 2 0 2 2 3 3 5 6 6 5 4
-5 -5 -6 -7 -7 -7 -7 -7 -6 -6 -6 -5 -3 -2 -1 -1 -1 -1 -1 -1 -1 -0 -0 -1 -1 -1 -1 -1 -0 0 2 2 3 3 5 7 7 6
-5 -6 -6 -8 -8 -8 -8 -8 -7 -6 -6 -5 -4 -2 -1 -1 -1 -1 -1 -1 -0 -0 -1 -1 -1 -2 -2 -1 -1 -0 1 1 3 5 5 7 7 6
-6 -6 -7 -8 -8 -8 -8 -8 -8 -7 -6 -6 -4 -3 -2 -1 -0 -1 -1 -1 -0 -1 -1 -1 -2 -2 -1 -0 1 0 -0 1 1 2 6 6 7 6
-6 -7 -8 -8 -9 -9 -9 -9 -9 -8 -7 -6 -5 -3 -2 -1 -1 -1 -1 -1 -0 -1 -1 -2 -2 -2 0 1 1 1 -0 0 1 3 6 6 6 7
-7 -7 -8 -9 -9 -9 -9 -10 -10 -9 -7 -6 -5 -4 -2 -1 -0 -1 -1 -1 -1 -1 -1 -1 -1 -1 0 0 1 1 0 0 2 2 4 5 6 6
-8 -8 -9 -9 -10 -10 -10 -10 -11 -9 -8 -7 -6 -4 -2 -1 -1 -1 -1 -1 -1 -1 -1 -0 -1 -1 -0 0 2 2 2 1 2 2 2 3 5 6
-8 -9 -9 -10 -11 -11 -11 -11 -11 -10 -9 -7 -7 -5 -3 -2 -1 -1 -1 -1 -1 -1 -0 -0 -0 -0 -0 0 0 1 2 2 1 1 3 4 6 5

GFSNE_925_temp_378.txt.gz
Temp
-2 -2 -2 -2 -2 -2 -2 -3 -3 -3 -3 -1 0 1 0 1 1 1 1 1 2 1 1 1 2 2 2 2 3 3 4 3 3 3 3 3 4 4
-2 -2 -2 -2 -2 -2 -2 -3 -3 -3 -3 -1 -0 0 0 0 0 0 1 1 1 1 1 1 1 1 1 2 2 3 3 2 2 2 2 2 3 3
-3 -3 -3 -2 -2 -2 -2 -3 -3 -3 -3 -2 -1 -0 0 -0 -1 0 1 1 1 1 1 1 1 1 1 1 1 1 2 2 2 2 2 2 1 2
-3 -3 -3 -3 -3 -3 -3 -3 -3 -2 -2 -2 -1 -1 -0 -0 -1 -1 1 2 2 1 1 1 0 1 1 1 1 1 1 2 1 1 2 2 2 2
-4 -3 -3 -3 -3 -3 -3 -3 -3 -3 -2 -2 -2 -1 -1 -0 -1 -1 -0 0 1 2 1 1 0 0 0 1 1 1 1 1 1 1 1 2 2 2
-3 -4 -4 -3 -3 -3 -3 -4 -3 -3 -3 -2 -2 -2 -1 -0 -0 -0 -1 -0 0 1 1 0 0 0 0 0 0 1 1 1 1 1 1 1 2 2
-4 -4 -4 -4 -4 -4 -4 -4 -4 -4 -4 -3 -2 -1 -1 -1 -0 -0 -1 -0 -0 0 0 -1 -0 0 -0 -0 -0 0 0 1 1 1 1 1 1 2
-4 -4 -5 -5 -5 -5 -5 -5 -5 -5 -5 -4 -3 -3 -1 -0 -1 -1 -1 -1 -5 -1 -1 -0 -1 0 0 0 1 1 1 1 1 1 1 1 1 2
-4 -5 -5 -5 -6 -6 -6 -6 -6 -6 -5 -5 -5 -4 -3 -1 -1 -1 -1 -1 -1 -1 -1 -1 0 0 1 1 2 2 2 1 1 1 0 1 1 2
-5 -5 -5 -5 -5 -6 -6 -6 -6 -6 -6 -5 -4 -4 -3 -2 -2 -2 -2 -1 -1 -1 -1 -2 -0 0 1 2 2 2 2 2 1 1 1 1 1 2
-5 -6 -5 -6 -6 -5 -6 -6 -6 -6 -5 -4 -4 -3 -3 -3 -2 -2 -2 -1 -2 -1 -1 -1 0 0 1 1 2 2 2 2 1 1 1 1 1 2
-6 -6 -6 -6 -6 -6 -6 -7 -6 -6 -6 -5 -4 -3 -3 -3 -3 -2 -2 -2 -1 -2 -1 -1 -0 0 0 1 1 2 2 1 1 1 1 1 1 2
-6 -6 -7 -7 -6 -6 -6 -6 -6 -6 -6 -5 -4 -3 -3 -2 -3 -2 -2 -1 -1 -1 -0 -1 -0 -0 0 0 1 2 2 2 1 1 1 2 2 2
-6 -6 -7 -7 -7 -6 -6 -6 -5 -5 -5 -4 -3 -3 -2 -2 -2 -2 -1 -1 -1 -0 -1 -0 -0 -0 0 -0 1 2 2 2 2 2 2 2 2 2
-6 -7 -7 -7 -7 -8 -7 -6 -6 -5 -5 -4 -3 -3 -2 -2 -2 -1 -1 -1 -1 -1 -1 -1 -1 -0 0 1 2 2 2 2 3 2 2 2 3 3
-6 -7 -8 -8 -8 -8 -8 -7 -6 -6 -6 -5 -3 -3 -2 -2 -2 -2 -2 -2 -1 -1 -1 -1 -0 -0 0 1 0 0 2 3 3 3 4 3 3 4
-6 -7 -8 -8 -8 -8 -8 -8 -8 -7 -6 -5 -4 -2 -2 -2 -2 -2 -2 -2 -2 -1 -1 -1 -1 -1 -1 -0 0 -0 1 2 3 4 4 5 5 5
-7 -8 -8 -9 -9 -9 -9 -9 -9 -8 -7 -5 -5 -3 -2 -1 -2 -2 -2 -2 -1 -1 -1 -1 -1 -2 -1 -1 -0 1 2 2 3 3 4 4 6 6
-8 -8 -9 -9 -10 -10 -9 -10 -10 -9 -8 -6 -5 -3 -2 -1 -1 -1 -1 -1 -1 -0 -1 -1 -1 -1 -3 -4 0 1 1 1 2 3 4 5 6 6
-8 -8 -9 -10 -10 -10 -10 -10 -10 -9 -8 -6 -5 -3 -2 -1 -1 -1 -1 -1 -0 -1 -1 -2 -1 -1 -1 -1 0 1 0 0 1 1 3 5 5 6
-8 -9 -9 -10 -11 -11 -11 -11 -10 -9 -8 -7 -5 -4 -2 -1 -1 -1 -1 -1 -1 -1 -1 -2 -1 -1 -2 -2 -0 0 0 -0 0 1 2 4 5 6
-9 -9 -10 -11 -11 -12 -11 -11 -11 -10 -9 -8 -6 -5 -2 -1 -1 -1 -1 -0 -1 -1 -0 -0 -1 -1 -1 -1 0 1 2 -0 1 1 1 2 4 4
-9 -10 -10 -11 -12 -13 -12 -12 -11 -10 -9 -8 -7 -5 -3 -1 -1 -1 -1 -0 0 -1 -1 -0 -1 -0 -0 -0 -0 0 1 1 1 2 3 4 5 4